FW1036 Weather Reports


time (UTC)temp
F
wind
direction
speed
knots
gust
knots
rain 1hr
in
rain 24hr
in
rain mn
in
humidity
%
barometer
mb
20260901200052 82 92 3.5 7.0 0.00 0.00 0.00 79 1011.2
20260901194600 84 144 3.5 7.8 0.00 0.01 0.00 78 1011.3
20260901193051 85 65 5.2 7.8 0.00 0.01 0.00 75 1011.3
20260901191609 85 289 0.0 2.6 0.00 0.01 0.00 73 1011.2
20260901190050 85 269 1.7 4.3 0.00 0.01 0.00 72 1011.6
20260901184549 87 207 0.9 3.5 0.00 0.01 0.00 70 1011.8
20260901183053 86 287 0.9 3.5 0.00 0.01 0.00 72 1011.8
20260901181544 86 295 0.0 4.3 0.00 0.01 0.00 75 1011.9
20260901180044 84 200 0.0 5.2 0.00 0.01 0.00 78 1012.1
20260901174543 84 244 1.7 5.2 0.00 0.06 0.00 77 1012.0
20260901173046 84 249 0.9 6.1 0.00 0.06 0.00 76 1012.0
20260901171546 83 298 0.0 4.3 0.00 0.06 0.00 80 1012.2
20260901170039 83 289 0.0 7.0 0.00 0.06 0.00 78 1012.2
20260901164546 84 259 0.9 7.8 0.00 0.07 0.00 79 1012.3
20260901163039 82 292 2.6 6.1 0.00 0.07 0.00 79 1012.4
20260901161546 82 248 2.6 7.0 0.00 0.07 0.00 79 1012.4
20260901160032 80 268 0.0 6.1 0.00 0.07 0.00 80 1012.4
20260901154530 80 200 0.9 2.6 0.00 0.16 0.00 81 1012.5
20260901153041 80 291 0.0 2.6 0.00 0.16 0.00 83 1012.4
20260901151528 79 285 0.9 3.5 0.00 0.16 0.00 82 1012.6
20260901150026 80 246 2.6 5.2 0.00 0.16 0.00 80 1012.6
20260901144527 79 296 0.0 4.3 0.00 0.33 0.00 84 1012.7
20260901143018 78 280 0.9 6.1 0.00 0.33 0.00 85 1012.6
20260901141515 77 279 1.7 7.0 0.00 0.33 0.00 86 1012.4
20260901140012 76 210 0.9 6.1 0.00 0.33 0.00 89 1012.4
20260901134508 74 293 0.0 4.3 0.00 0.33 0.00 92 1012.4
20260901133004 73 294 0.0 2.6 0.00 0.33 0.00 93 1012.5
20260901131600 72 247 0.0 1.7 0.00 0.33 0.00 93 1012.6
20260901130057 71 221 0.0 0.9 0.00 0.33 0.00 94 1012.4
20260901124556 71 221 0.0 2.6 0.00 0.33 0.00 94 1012.5
20260901123053 70 232 0.0 2.6 0.00 0.33 0.00 94 1012.5
20260901121549 69 232 0.9 2.6 0.00 0.33 0.00 94 1012.3
20260901120050 68 223 0.9 2.6 0.00 0.33 0.00 94 1012.3
20260901114544 68 247 0.0 1.7 0.00 0.36 0.00 94 1012.0
20260901113042 68 247 0.0 0.0 0.00 0.36 0.00 94 1011.9
20260901111539 67 247 0.0 0.0 0.00 0.36 0.00 93 1011.7
20260901110038 67 247 0.0 0.0 0.00 0.36 0.00 93 1011.5
20260901104541 67 253 0.0 0.9 0.00 0.49 0.00 93 1011.5
20260901103036 67 253 0.0 0.0 0.00 0.49 0.00 93 1011.2
20260901101546 67 253 0.0 0.9 0.00 0.49 0.00 93 1011.2
20260901100036 67 253 0.0 0.0 0.00 0.49 0.00 93 1011.2
20260901094539 67 253 0.0 0.0 0.00 0.52 0.00 93 1011.2
20260901093034 67 253 0.0 0.9 0.00 0.52 0.00 93 1011.2
20260901091534 67 253 0.0 0.0 0.00 0.52 0.00 93 1011.1
20260901090033 67 253 0.0 0.0 0.00 0.52 0.00 93 1011.1
20260901084532 67 253 0.0 0.0 0.00 0.52 0.00 92 1011.2
20260901083033 67 253 0.0 0.0 0.00 0.52 0.00 92 1010.9
20260901081532 67 253 0.0 0.0 0.00 0.52 0.00 92 1010.9
20260901080032 67 253 0.0 0.0 0.00 0.52 0.00 92 1010.8
20260901074542 67 253 0.0 0.0 0.00 0.52 0.00 92 1010.8
20260901073027 67 253 0.0 0.0 0.00 0.52 0.00 92 1010.9
20260901071527 67 253 0.0 1.7 0.00 0.52 0.00 92 1011.0
20260901070025 68 253 0.0 1.7 0.00 0.52 0.00 92 1011.0
20260901064524 68 252 0.0 0.0 0.00 0.52 0.00 91 1010.9
20260901063023 68 252 0.0 0.9 0.00 0.52 0.00 91 1010.9
20260901061521 68 219 0.9 2.6 0.00 0.52 0.00 91 1010.9
20260901060119 68 234 0.0 1.7 0.00 0.52 0.00 91 1011.1
20260901054519 68 260 0.0 2.6 0.00 0.53 0.00 91 1011.2
20260901053017 68 242 0.9 2.6 0.00 0.53 0.00 91 1011.3
20260901051527 68 215 0.9 3.5 0.00 0.53 0.00 91 1011.4
20260901050013 69 229 0.9 3.5 0.00 0.53 0.00 91 1011.3
20260901044511 68 219 0.9 2.6 0.00 0.53 0.00 90 1011.4
20260901043010 69 190 0.9 3.5 0.00 0.53 0.00 91 1011.4
20260901041513 69 217 0.0 1.7 0.00 0.53 0.00 90 1011.5
20260901040006 69 211 0.0 1.7 0.00 0.53 0.53 90 1011.6
20260901034506 69 253 0.0 2.6 0.00 0.53 0.53 90 1011.7
20260901033008 69 239 0.0 2.6 0.00 0.53 0.53 90 1011.4
20260901031505 69 232 0.9 3.5 0.00 0.53 0.53 90 1011.5
20260901030005 69 219 1.7 5.2 0.00 0.53 0.53 90 1011.6
20260901024505 69 182 2.6 5.2 0.00 0.53 0.53 90 1011.8
20260901023004 69 244 1.7 4.3 0.00 0.53 0.53 90 1011.8
20260901021503 69 215 1.7 5.2 0.00 0.53 0.53 90 1011.8
20260901020004 70 235 0.9 4.3 0.00 0.53 0.53 89 1011.8
20260901014504 70 217 0.9 2.6 0.00 0.53 0.53 89 1011.6
20260901013003 71 227 0.9 3.5 0.00 0.53 0.53 88 1011.6
20260901011500 71 165 0.9 2.6 0.00 0.53 0.53 87 1011.5
20260901010100 71 217 1.7 3.5 0.00 0.53 0.53 86 1011.4
20260901004600 72 209 0.9 4.3 0.00 0.53 0.53 86 1011.1
20260901003059 72 215 1.7 6.1 0.00 0.53 0.53 86 1011.0
20260901001605 72 186 1.7 7.0 0.00 0.53 0.53 86 1010.9
20260901000107 72 167 3.5 7.8 0.00 0.53 0.53 85 1010.9
20260831234618 73 192 4.3 9.6 0.00 0.53 0.53 84 1011.0
20260831233117 73 161 3.5 9.6 0.00 0.53 0.53 84 1011.2
20260831231554 74 161 5.2 10.4 0.00 0.53 0.53 83 1011.5
20260831230053 74 151 4.3 8.7 0.00 0.53 0.53 81 1011.7
20260831224550 74 167 4.3 10.4 0.00 0.53 0.53 80 1011.7
20260831223050 74 189 2.6 7.0 0.00 0.53 0.53 80 1012.2
20260831221546 74 199 1.7 5.2 0.00 0.53 0.53 84 1012.3
20260831220044 74 163 2.6 7.0 0.00 0.53 0.53 84 1012.3
20260831214543 73 140 2.6 7.0 0.00 0.55 0.53 85 1012.4
20260831213040 73 163 3.5 7.8 0.00 0.55 0.53 86 1012.4
20260831211539 72 159 4.3 6.1 0.00 0.55 0.53 85 1012.4
20260831210043 71 131 1.7 5.2 0.00 0.55 0.53 87 1012.6
20260831204538 71 10 5.2 7.8 0.00 0.66 0.53 86 1012.8
20260831203038 71 107 0.9 2.6 0.00 0.66 0.53 86 1012.4
20260831201545 71 109 0.9 1.7 0.00 0.66 0.53 86 1012.7